Regional Weather Roundup
Issued by NWS

Home | Current Version | Previous Version | Graphics & Text | Print | Product List | Glossary On
Versions: 1 2 3 4 5 6 7 8 9 10 11 12 13 14 15 16 17 18 19 20 21 22 23 24 25 26 27
000
ASUS45 KCYS 202310
RWRWY

WYOMING REGIONAL WEATHER ROUNDUP
NATIONAL WEATHER SERVICE CHEYENNE WY
500 PM MDT FRI OCT 20 2017

NOTE:  "FAIR" INDICATES FEW OR NO CLOUDS BELOW 12,000 FEET
WITH NO SIGNIFICANT WEATHER AND/OR OBSTRUCTIONS TO VISIBILITY.

WYZ001-210000-
YELLOWSTONE NATIONAL PARK

CITY           SKY/WX    TMP DP  RH WIND       PRES   REMARKS
LK YELLOWSTONE   N/A     30  24  78 VRB6      29.71R WCI  24
W YELLOWSTONE  NOT AVBL

$$
WYZ002>013-054>058-071-098>099-210000-
NORTHERN WYOMING

CITY           SKY/WX    TMP DP  RH WIND       PRES   REMARKS
JACKSON        CLOUDY    36  23  59 SW13G25   29.78R WCI  27
CODY           FAIR      54  27  35 W22G39    29.46R
GREYBULL       LGT RAIN  60  39  45 NW15      29.39R
WORLAND        FAIR      67  30  25 W23G32    29.39R
SHERIDAN       FAIR      73  30  20 SW13      29.29S
BUFFALO        FAIR      70  17  13 SW24G33   29.37S
GILLETTE       FAIR      72  30  21 SW17G26   29.34F
HULETT         FAIR      73  32  21 SW16G24   29.36F
NEWCASTLE      FAIR      72  27  18 SW17      29.43R

$$
WYZ014>020-022>026-101>103-210000-
CENTRAL WYOMING

CITY           SKY/WX    TMP DP  RH WIND       PRES   REMARKS
BIG PINEY      CLOUDY    41  22  46 NW21G31   29.75R
PINEDALE       CLOUDY    39  25  56 NW18G28   29.75R WCI  30
DUBOIS         FAIR      41  19  42 W43G53    29.57R
LANDER         FAIR      56  28  34 W25G41    29.50R
RIVERTON       FAIR      59  28  30 W28G38    29.49R
CASPER         FAIR      66  27  23 W21G26    29.45S
DOUGLAS        FAIR      70  26  19 W15       29.46S

$$
WYZ021-027>030-104>119-210000-
SOUTHERN WYOMING

CITY           SKY/WX    TMP DP  RH WIND       PRES   REMARKS
EVANSTON       CLOUDY    34  31  88 SW18      29.86R WCI  23
FORT BRIDGER   LGT SNOW  36  33  90 W26G36    29.85R WCI  24
ROCK SPRINGS   CLOUDY    44  25  47 W30G45    29.74R
DIXON          MOCLDY    63  28  25 SW18G30   29.64F
RAWLINS        FAIR      61  27  27 SW23G33   29.60S
SARATOGA       MOCLDY    59  27  29 MISG      29.64S
LARAMIE        FAIR      62  23  22 SW21G32   29.64S
CHEYENNE       PTSUNNY   68  30  24 S13       29.58F
TORRINGTON     FAIR      74  31  20 S14       29.44S
PINE BLUFFS    FAIR      72  30  21 S12       29.54F

$$




USA.gov is the U.S. government's official web portal to all federal, state and local government web resources and services.